Regional Weather Roundup
Issued by NWS

Home | Current Version | Previous Version | Graphics & Text | Print | Product List | Glossary On
Versions: 1 2 3 4 5 6 7 8 9 10 11 12 13 14 15 16 17 18 19 20 21 22 23 24 25 26 27 28 29 30 31 32 33 34 35 36 37 38 39 40 41 42 43 44
000
ASUS45 KSLC 021310
RWRUT

UTAH REGIONAL WEATHER ROUNDUP
NATIONAL WEATHER SERVICE SALT LAKE CITY UT
700 AM MDT WED SEP 02 2015

UTZ001>011-023>025-021400-

NORTHERN UTAH

CITY           SKY/WX    TMP DP  RH WIND       PRES   REMARKS
BRIGHAM CITY   PTCLDY    78  32  19 S16G24    29.97S
HILL AFB       CLEAR     74  40  28 S15       30.03R
LOGAN          CLEAR     78  36  21 S15       29.97R
OGDEN          CLEAR     75  40  28 S16       29.99R
PROVO AIRPORT  PTCLDY    63  43  48 E7        30.07R
SALT LAKE CITY PTCLDY    75  43  31 S17       30.00R
VERNAL         CLEAR     52  44  74 W3        30.17R
WENDOVER       CLEAR     72  36  26 SE16      29.95R
HEBER CITY     CLEAR     50  43  76 CALM      30.14R
WEST JORDAN    CLEAR     72  45  37 S18       30.04R

$$

UTZ012>022-026-027-021400-

SOUTHERN/CENTRAL UTAH

CITY           SKY/WX    TMP DP  RH WIND       PRES   REMARKS
BLANDING       MOCLDY    60  46  60 NE6       30.29R
BRYCE CANYON   CLEAR     42  38  85 W6        30.32S
CEDAR CITY     CLEAR     60  43  53 SW9       30.16R
DELTA          CLEAR     65  40  38 S8        30.08R
HANKSVILLE     PTCLDY    55  52  88 CALM      30.13R
MILFORD        CLEAR     61  41  47 SW13      30.10R
MOAB/CYNLANDS  CLEAR     62  53  72 SE12      30.11R
PRICE          CLEAR     54  44  69 NE6       30.19R
ST GEORGE      SUNNY     75  46  35 E3        30.01R
KANAB          CLEAR     55  54  94 NE5       30.21R

$$

REGIONAL REPORTS     COLORADO/ARIZONA

CITY           SKY/WX    TMP DP  RH WIND       PRES   REMARKS
CRAIG, CO      CLEAR     42  39  89 SW3       30.24R
GRAND JUNCTION CLEAR     59  50  72 SE8       30.15R
RIFLE          CLEAR     51  48  89 E3        30.24R
MONTROSE       CLEAR     54  47  77 S8        30.24R
CORTEZ         CLEAR     51  46  83 CALM      30.23R
PAGE, AZ       MOCLDY    70  49  47 CALM      30.10R
GRAND CANYON   PTCLDY    49  47  93 NE3       30.29R
KINGMAN        CLEAR     71  52  50 SE8       30.04R
FLAGSTAFF      PTCLDY    48  47  96 CALM      30.33R

$$

REGIONAL REPORTS    NEVADA/IDAHO/WYOMING

CITY           SKY/WX    TMP DP  RH WIND       PRES   REMARKS
LAS VEGAS, NV  PTCLDY    83  54  36 S6        29.87R
ELY            PTCLDY    59  38  45 S10       30.14S
ELKO           CLEAR     50  26  39 NW5       30.02R
POCATELLO, ID  CLEAR     70  35  27 S8        29.94R
BURLEY         CLEAR     55  41  59 S8        29.91R
EVANSTON, WY   CLEAR     57  38  48 SW10      30.20R
ROCK SPRINGS   CLEAR     59  39  47 CALM      30.18R
KEMMERER       CLEAR     55  34  44 CALM      30.20S

$$


USA.gov is the U.S. government's official web portal to all federal, state and local government web resources and services.